Date,TemperatureHighF,TemperatureAvgF,TemperatureLowF,DewpointHighF,DewpointAvgF,DewpointLowF,HumidityHigh,HumidityAvg,HumidityLow,PressureMaxIn,PressureMinIn,WindSpeedMaxMPH,WindSpeedAvgMPH,GustSpeedMaxMPH,PrecipitationSumIn
2013-1-1,28.2,19.7,6.4,21.5,11.8,-0.8,79,71,58,29.74,29.60,10,1,10,0.00
2013-1-2,28.6,16.7,5.9,19.8,10.7,0.8,83,77,68,29.78,29.67,10,3,10,0.00
2013-1-3,29.1,20.0,4.8,23.6,13.9,-0.6,82,77,68,29.76,29.66,12,4,14,0.00
2013-1-4,29.8,24.8,18.0,22.6,18.2,13.0,82,76,65,29.78,29.65,18,9,18,0.00
2013-1-5,34.0,24.5,10.4,28.8,19.5,6.2,87,81,71,29.86,29.62,12,7,12,0.00
2013-1-6,37.2,33.1,30.7,31.6,28.5,25.2,87,83,77,29.85,29.51,13,6,13,0.00
2013-1-7,35.8,29.0,23.2,27.1,23.2,19.0,84,79,69,29.97,29.75,19,5,19,0.00
2013-1-8,41.4,27.3,17.8,31.1,21.7,13.8,87,80,65,29.84,29.75,11,4,11,0.00
2013-1-9,45.7,35.3,23.4,34.1,27.7,19.6,89,74,55,30.03,29.63,18,6,18,0.00
2013-1-10,41.2,30.4,23.2,31.9,25.1,18.8,87,81,68,30.14,29.73,8,1,8,0.06
2013-1-11,58.3,43.9,34.3,53.5,40.5,30.8,92,88,77,29.75,29.35,20,5,20,0.47
2013-1-12,59.7,48.8,41.7,52.9,45.3,39.0,92,88,78,29.54,29.37,12,4,12,0.04
2013-1-13,49.3,39.0,31.3,47.3,36.3,27.4,93,90,87,29.64,29.30,19,5,19,0.12
2013-1-14,31.1,24.8,15.8,27.4,19.1,11.5,86,79,69,30.01,29.64,16,4,16,1.86
2013-1-15,33.4,21.1,12.7,26.1,15.7,8.5,87,80,67,30.01,29.71,5,0,5,0.00
2013-1-16,38.3,28.9,20.1,26.6,21.7,16.3,87,75,57,29.71,29.42,17,5,17,0.00
2013-1-17,40.3,30.4,19.0,27.6,21.4,9.4,86,70,54,29.90,29.56,17,5,17,0.00
2013-1-18,34.2,26.8,16.2,23.3,17.5,8.7,75,68,60,30.01,29.58,22,7,22,0.00
2013-1-19,51.4,39.4,32.4,34.3,28.9,23.3,76,66,51,29.58,29.22,23,10,23,0.00
2013-1-20,41.0,24.2,18.1,33.4,12.4,7.2,76,61,50,29.77,29.20,28,10,28,0.26
2013-1-21,23.2,15.4,5.2,11.4,6.8,-1.1,75,69,56,29.73,29.54,20,7,20,0.00
2013-1-22,16.3,5.9,-3.5,5.0,-1.9,-10.7,77,70,59,29.87,29.69,13,4,13,0.00
2013-1-23,21.9,11.7,0.1,11.0,3.7,-6.0,79,71,57,29.87,29.64,17,3,17,0.00
2013-1-24,22.8,13.0,6.1,9.7,5.1,0.6,81,71,53,30.16,29.68,16,2,16,0.00
2013-1-25,27.9,19.4,13.6,18.7,12.5,6.7,82,74,66,30.06,29.59,14,3,14,0.00
2013-1-26,29.1,22.0,12.9,19.1,15.2,7.3,85,75,60,30.03,29.62,13,2,13,0.00
2013-1-27,33.3,22.3,7.0,27.1,16.2,2.4,86,78,63,30.05,29.70,13,4,13,0.00
2013-1-28,45.9,38.7,30.7,43.7,36.1,26.8,92,90,85,29.73,29.45,15,5,15,0.18
2013-1-29,55.0,47.1,35.4,52.8,44.9,33.3,93,92,90,29.61,29.06,19,7,19,0.53
2013-1-30,61.0,49.9,31.8,56.8,46.9,26.1,93,89,79,29.06,28.74,37,9,37,0.39
2013-1-31,31.8,23.1,16.0,26.1,16.0,9.7,85,74,61,29.49,28.91,11,0,11,0.00
2013-2-1,23.0,15.1,10.6,12.4,7.8,2.9,82,73,61,29.86,29.48,0,0,0,0.00
2013-2-2,30.4,18.5,2.5,21.7,12.5,-2.4,83,77,69,29.80,29.51,0,0,0,0.00
2013-2-3,30.6,14.4,-1.1,19.6,8.0,-6.3,87,76,60,29.60,29.44,0,0,0,0.00
2013-2-4,32.4,21.2,17.2,23.8,15.8,12.0,85,80,65,29.61,29.44,0,0,0,0.00
2013-2-5,33.4,23.7,11.5,24.0,18.2,7.5,86,80,65,29.54,29.40,0,0,0,0.00
2013-2-6,36.7,20.2,3.4,24.8,12.5,-1.8,87,73,58,29.87,29.54,0,0,0,0.02
2013-2-7,42.8,30.5,22.3,30.8,23.7,15.5,86,76,61,29.85,29.41,0,0,0,0.02
2013-2-8,31.3,26.4,14.9,28.8,21.4,10.1,90,81,72,29.92,29.34,0,0,0,0.02
2013-2-9,36.9,20.7,7.5,27.8,15.5,3.2,87,81,67,30.01,29.85,0,0,0,0.02
2013-2-10,42.4,31.1,18.0,36.2,25.8,14.1,87,81,65,29.85,29.27,0,0,0,0.06
2013-2-11,42.6,36.9,31.3,40.0,30.6,24.3,91,78,70,29.49,29.17,23,0,23,0.00
2013-2-12,37.4,32.0,28.6,27.3,24.4,22.2,79,73,66,29.64,29.49,0,0,0,0.00
2013-2-13,41.5,30.7,26.2,30.6,23.7,20.2,85,75,63,29.52,29.32,0,0,0,0.00
2013-2-14,41.4,34.8,26.6,35.9,29.8,22.5,89,82,74,29.45,29.28,1,0,1,0.00
2013-2-15,33.6,29.5,20.5,27.1,20.4,12.5,82,69,57,29.71,29.45,0,0,0,0.00
2013-2-16,30.0,21.7,14.2,23.3,14.5,9.1,81,74,57,29.69,29.56,0,0,0,0.00
2013-2-17,29.5,17.8,9.0,12.7,8.8,4.3,84,69,47,29.77,29.64,0,0,0,0.00
2013-2-18,49.3,32.9,15.6,35.2,22.9,9.4,77,67,51,29.77,29.19,0,0,0,0.00
2013-2-19,43.0,27.7,18.3,39.1,21.3,10.8,89,77,67,29.55,29.03,25,2,25,0.06
2013-2-20,24.1,20.6,16.5,14.9,12.0,9.6,79,69,60,29.82,29.55,0,0,0,0.00
2013-2-21,31.5,23.7,20.8,19.9,15.5,13.4,77,71,60,29.94,29.81,0,0,0,0.00
2013-2-22,37.2,29.5,21.9,30.7,24.8,16.1,88,83,77,29.82,29.46,0,0,0,0.04
2013-2-23,39.9,31.3,24.1,29.3,22.7,17.0,87,71,54,29.52,29.46,0,0,0,0.00
2013-2-24,42.6,28.8,17.8,30.1,21.6,12.7,83,75,59,29.73,29.49,0,0,0,0.00
2013-2-25,46.0,29.9,18.0,33.2,22.7,13.6,89,75,53,29.80,29.66,0,0,0,0.00
2013-2-26,34.3,31.2,27.1,30.6,26.5,21.4,92,83,72,29.68,29.05,0,0,0,0.47
2013-2-27,40.3,33.8,31.8,37.6,31.3,29.3,92,90,85,29.18,29.02,0,0,0,0.53
2013-2-28,39.0,33.7,30.9,32.7,29.4,26.1,91,84,73,29.54,29.15,0,0,0,0.08
2013-3-1,30.9,27.6,25.5,26.1,21.3,18.9,82,77,72,29.68,29.53,0,0,0,0.00
2013-3-2,28.0,25.5,23.5,20.6,19.0,16.9,81,76,73,29.67,29.62,0,0,0,0.00
2013-3-3,32.2,24.3,18.3,19.0,16.1,12.5,79,71,55,29.64,29.58,0,0,0,0.00
2013-3-4,43.0,26.1,15.1,25.3,17.1,10.8,84,70,48,29.73,29.64,0,0,0,0.00
2013-3-5,35.2,28.1,21.0,26.4,22.0,16.9,86,78,69,29.69,29.37,0,0,0,0.00
2013-3-6,41.5,33.2,26.6,31.2,26.5,22.0,84,76,64,29.79,29.39,0,0,0,0.00
2013-3-7,38.7,33.8,27.5,30.0,26.5,20.9,85,75,62,29.96,29.77,0,0,0,0.00
2013-3-8,49.1,32.0,22.1,32.6,23.6,17.4,83,72,51,30.07,29.96,0,0,0,0.00
2013-3-9,50.2,35.3,24.8,36.0,28.4,21.1,88,77,57,29.98,29.62,0,0,0,0.00
2013-3-10,65.1,47.4,32.0,48.9,38.3,28.0,88,72,53,29.62,29.38,0,0,0,0.00
2013-3-11,52.5,48.1,36.3,47.2,42.7,31.2,89,82,71,29.40,29.07,0,0,0,0.13
2013-3-12,38.3,33.8,29.1,32.8,28.3,24.3,86,81,70,29.52,29.31,0,0,0,0.00
2013-3-13,33.6,29.1,25.7,26.5,21.3,16.0,87,73,61,29.79,29.47,0,0,0,0.00
2013-3-14,45.5,30.6,19.2,26.7,19.7,13.3,80,65,45,29.85,29.67,0,0,0,0.00
2013-3-15,50.4,36.7,29.1,36.8,29.7,20.9,88,76,57,29.67,29.42,0,0,0,0.08
2013-3-16,34.2,30.5,28.6,30.9,26.7,24.1,91,85,80,29.63,29.32,0,0,0,0.02
2013-3-17,36.5,27.4,20.8,24.3,18.9,15.8,82,70,53,29.83,29.62,0,0,0,0.02
2013-3-18,34.3,30.7,24.3,31.6,26.8,17.9,90,86,76,29.75,29.14,0,0,0,0.06
2013-3-19,33.6,28.3,23.0,30.4,19.9,16.1,88,71,59,29.55,29.23,0,0,0,0.00
2013-3-20,32.9,25.3,16.9,17.8,14.7,9.2,75,64,51,29.54,29.48,0,0,0,0.00
2013-3-21,35.2,24.7,13.6,22.7,16.9,8.0,83,72,57,29.54,29.46,0,0,0,0.00
2013-3-22,47.1,32.7,25.9,26.8,21.0,17.4,77,63,44,29.61,29.52,0,0,0,0.00
2013-3-23,43.5,30.9,19.4,27.9,21.9,15.0,85,70,52,29.68,29.60,0,0,0,0.00
2013-3-24,37.9,30.8,23.9,26.1,23.1,19.5,86,74,57,29.61,29.19,0,0,0,0.00
2013-3-25,39.4,33.6,29.3,32.0,26.6,23.6,87,76,62,29.49,29.12,0,0,0,0.00
2013-3-26,45.7,36.9,31.8,32.2,28.1,25.7,81,71,55,29.70,29.49,0,0,0,0.00
2013-3-27,48.6,36.9,27.1,29.2,26.1,22.3,85,66,45,29.80,29.70,0,0,0,0.00
2013-3-28,54.9,40.4,27.0,30.3,25.6,19.5,78,57,37,29.84,29.79,0,0,0,0.00
2013-3-29,58.1,40.2,24.4,30.2,22.9,17.6,77,53,30,29.87,29.77,0,0,0,0.00
2013-3-30,62.4,41.2,22.5,31.9,24.6,14.8,76,55,30,29.80,29.51,0,0,0,0.00
2013-3-31,64.0,47.8,34.3,44.8,34.3,25.3,81,62,35,29.51,29.22,0,0,0,0.02
2013-4-1,46.0,34.3,21.9,30.9,17.7,8.3,76,53,31,29.69,29.30,0,0,0,0.00
2013-4-2,45.7,30.4,17.2,19.6,13.1,6.6,78,51,30,29.82,29.69,0,0,0,0.00
2013-4-3,50.7,31.2,18.0,19.3,13.1,7.6,73,49,28,29.99,29.82,0,0,0,0.00
2013-4-4,62.2,37.6,17.2,24.6,16.6,7.4,70,46,24,29.94,29.54,0,0,0,0.00
2013-4-5,51.8,42.4,31.1,29.2,21.7,16.6,72,45,28,29.79,29.51,0,0,0,0.00
2013-4-6,59.7,43.8,26.4,28.2,23.9,18.9,74,49,29,29.83,29.37,0,0,0,0.00
2013-4-7,63.1,54.9,39.7,45.0,37.4,26.3,67,53,35,29.60,29.24,0,0,0,0.00
2013-4-8,71.4,48.4,31.6,58.8,39.8,26.7,86,73,54,29.62,29.30,0,0,0,0.08
2013-4-9,60.4,48.6,37.9,47.2,41.6,34.2,90,77,61,29.67,29.45,0,0,0,0.00
2013-4-10,48.4,44.2,40.6,44.3,41.2,38.2,92,89,84,29.56,29.39,0,0,0,0.35
2013-4-11,40.6,38.3,36.1,38.5,35.8,33.7,92,91,89,29.55,29.19,0,0,0,0.90
2013-4-12,44.2,39.3,36.3,39.9,35.4,32.9,92,86,74,29.38,29.11,0,0,0,0.32
2013-4-13,44.1,39.2,36.3,36.2,31.9,29.4,87,75,63,29.58,29.38,0,0,0,0.00
2013-4-14,51.6,40.9,32.2,38.6,32.7,27.6,85,73,57,29.69,29.51,0,0,0,0.00
2013-4-15,71.2,55.9,34.5,55.1,46.8,31.2,89,73,55,29.55,29.45,0,0,0,0.00
2013-4-16,64.8,55.1,47.8,52.5,45.4,37.1,90,71,47,29.80,29.46,0,0,0,0.17
2013-4-17,58.8,47.8,40.8,40.0,36.3,32.7,87,65,48,29.90,29.63,0,0,0,0.12
2013-4-18,78.6,58.1,42.6,66.3,52.9,39.0,91,83,63,29.63,29.17,0,0,0,0.53
2013-4-19,58.1,43.5,35.1,55.8,38.0,28.9,92,81,69,29.38,28.95,0,0,0,0.18
2013-4-20,46.2,36.6,29.1,30.2,25.5,20.2,83,65,46,30.01,29.37,1,0,1,0.00
2013-4-21,52.9,37.2,24.1,32.8,25.7,17.8,85,65,42,30.18,30.01,0,0,0,0.00
2013-4-22,65.3,45.9,28.0,41.3,32.9,24.3,89,65,34,30.04,29.76,0,0,0,0.00
2013-4-23,75.0,55.0,35.2,51.8,43.0,29.8,88,67,38,29.77,29.39,0,0,0,0.14
2013-4-24,54.3,40.4,32.5,51.4,36.2,26.8,90,85,65,29.74,29.31,0,0,0,0.43
2013-4-25,55.6,40.6,30.9,42.4,32.4,25.1,88,73,46,29.93,29.70,0,0,0,0.04
2013-4-26,63.5,45.3,27.7,41.4,33.9,23.4,89,67,42,30.04,29.91,0,0,0,0.00
2013-4-27,73.9,53.6,32.9,48.6,38.8,29.4,91,62,34,29.94,29.68,0,0,0,0.00
2013-4-28,55.8,51.5,46.8,52.9,46.8,35.3,92,84,63,29.69,29.42,0,0,0,0.17
2013-4-29,78.6,61.6,51.3,59.7,53.1,48.7,92,76,49,29.53,29.42,0,0,0,0.00
2013-4-30,80.4,62.7,49.1,59.7,53.2,45.8,91,73,48,29.66,29.53,0,0,0,0.00
2013-5-1,85.1,65.3,48.0,63.1,53.8,45.0,91,69,43,29.82,29.64,0,0,0,0.00
2013-5-2,84.9,65.2,49.8,59.3,51.0,44.0,87,63,39,29.83,29.71,0,0,0,0.00
2013-5-3,80.2,64.9,51.4,59.2,48.0,40.1,82,57,29,29.72,29.62,0,0,0,0.00
2013-5-4,75.4,62.1,53.2,49.7,43.2,37.9,76,52,31,29.70,29.62,0,0,0,0.00
2013-5-5,78.6,60.6,48.9,48.1,41.8,34.2,78,53,26,29.68,29.60,0,0,0,0.00
2013-5-6,75.0,59.9,45.1,50.3,43.6,37.5,76,56,41,29.64,29.56,0,0,0,0.00
2013-5-7,82.2,62.9,48.6,54.7,47.7,39.7,75,59,36,29.64,29.57,0,0,0,0.00
2013-5-8,81.1,64.6,51.8,58.9,49.9,44.1,77,61,36,29.61,29.52,0,0,0,0.00
2013-5-9,89.2,68.2,48.7,57.8,51.4,44.7,89,59,30,29.56,29.48,0,0,0,0.00
2013-5-10,78.4,62.0,44.4,61.9,53.7,39.0,88,75,54,29.52,29.33,0,0,0,0.00
2013-5-11,66.6,48.7,36.0,48.8,40.9,29.7,85,75,51,29.51,29.36,0,0,0,0.00
2013-5-12,53.4,41.6,32.7,36.9,30.2,21.6,87,65,46,29.69,29.49,0,0,0,0.00
2013-5-13,69.1,44.5,28.0,32.4,25.5,20.8,82,51,25,29.76,29.67,0,0,0,0.00
2013-5-14,89.2,62.0,41.5,58.6,42.8,27.0,69,51,36,29.70,29.30,0,0,0,0.00
2013-5-15,88.9,74.5,58.8,58.7,51.9,43.0,78,49,26,29.38,29.21,0,0,0,0.00
2013-5-16,91.9,71.6,50.2,51.7,45.3,36.5,65,41,24,29.59,29.38,0,0,0,0.00
2013-5-17,77.5,62.5,48.0,49.1,42.7,36.0,68,50,34,29.72,29.59,0,0,0,0.00
2013-5-18,79.9,64.8,50.5,53.9,45.7,35.2,70,51,35,29.73,29.63,0,0,0,0.00
2013-5-19,92.8,71.8,52.7,66.3,56.0,42.8,75,59,40,29.63,29.48,0,0,0,0.00
2013-5-20,94.8,77.6,57.7,69.9,62.3,52.9,87,63,38,29.52,29.38,0,0,0,0.00
2013-5-21,91.0,78.8,68.7,67.0,61.7,56.2,81,58,39,29.43,29.31,0,0,0,0.00
2013-5-22,85.3,70.8,61.0,66.9,60.3,55.0,87,70,44,29.35,29.24,5,0,5,0.00
2013-5-23,71.2,56.2,45.1,61.8,51.8,41.1,90,85,71,29.74,29.31,0,0,0,0.00
2013-5-24,67.8,48.4,38.8,41.7,37.8,33.2,89,69,38,29.93,29.73,0,0,0,0.00
2013-5-25,78.3,52.4,35.8,43.8,37.7,31.6,88,61,29,29.99,29.84,0,0,0,0.00
2013-5-26,81.5,59.2,38.1,44.5,38.7,32.7,85,50,27,29.94,29.80,0,0,0,0.00
2013-5-27,57.4,51.8,46.2,51.5,43.8,35.5,91,75,55,29.85,29.57,0,0,0,0.00
2013-5-28,81.5,67.0,52.9,70.4,61.0,50.6,92,82,68,29.57,29.42,0,0,0,0.00
2013-5-29,97.3,77.6,67.6,72.4,64.5,59.4,82,65,44,29.59,29.42,0,0,0,0.00
2013-5-30,91.0,75.7,64.6,74.4,65.1,58.1,85,71,48,29.66,29.55,0,0,0,0.00
2013-5-31,81.7,73.1,67.6,69.7,65.9,63.1,90,79,64,29.60,29.46,0,0,0,0.00
2013-6-1,81.7,70.0,62.4,68.1,63.4,59.8,92,81,59,29.49,29.30,0,0,0,0.02
2013-6-2,76.3,66.8,55.2,63.0,57.3,45.7,88,72,54,29.57,29.27,0,0,0,0.12
2013-6-3,82.2,58.7,43.9,48.1,42.4,37.8,80,57,30,29.67,29.57,0,0,0,0.00
2013-6-4,77.7,61.4,48.4,52.2,46.7,41.8,79,60,40,29.78,29.67,0,0,0,0.00
2013-6-5,78.4,63.2,51.6,49.1,43.7,37.7,66,50,32,29.76,29.57,0,0,0,0.00
2013-6-6,72.5,61.8,53.6,53.9,48.5,42.9,75,62,51,29.57,29.43,0,0,0,0.00
2013-6-7,65.8,56.7,51.6,52.9,49.0,45.7,85,76,63,29.51,29.46,0,0,0,0.00
2013-6-8,81.3,65.2,52.0,58.0,52.9,47.0,87,67,42,29.65,29.49,0,0,0,0.00
2013-6-9,79.0,67.1,57.4,62.2,57.0,52.0,87,71,50,29.69,29.53,0,0,0,0.00
2013-6-10,78.6,67.3,61.3,69.9,62.9,58.0,92,86,72,29.54,29.33,0,0,0,1.24
2013-6-11,90.3,72.9,63.5,69.4,64.3,60.3,92,76,49,29.50,29.36,0,0,0,0.00
2013-6-12,84.0,72.6,63.1,70.1,64.6,59.2,88,77,61,29.51,29.23,0,0,0,0.02
2013-6-13,80.6,68.7,62.2,63.2,59.1,55.7,92,73,50,29.52,29.10,0,0,0,0.86
2013-6-14,90.7,69.1,58.6,61.5,56.6,53.4,88,67,35,29.67,29.52,0,0,0,0.00
2013-6-15,82.6,68.5,55.9,64.8,58.3,50.8,85,71,52,29.69,29.52,0,0,0,0.00
2013-6-16,91.2,73.8,63.9,69.0,62.8,53.7,91,71,42,29.52,29.40,0,0,0,0.43
2013-6-17,96.3,75.7,59.9,68.0,60.5,53.1,83,62,37,29.55,29.43,0,0,0,0.00
2013-6-18,78.6,66.6,55.0,60.2,55.1,44.4,88,68,39,29.66,29.47,0,0,0,0.02
2013-6-19,88.0,64.3,47.7,57.6,49.3,40.0,77,60,35,29.76,29.65,0,0,0,0.00
2013-6-20,92.5,68.2,50.7,62.7,54.3,46.8,88,65,36,29.81,29.73,0,0,0,0.00
2013-6-21,90.0,74.4,61.0,65.9,60.0,54.9,84,63,38,29.80,29.64,0,0,0,0.00
2013-6-22,95.2,75.5,66.9,75.1,65.8,55.9,88,73,52,29.69,29.57,0,0,0,0.63
2013-6-23,101.8,79.2,67.6,75.8,68.4,62.7,90,72,43,29.68,29.56,0,0,0,0.00
2013-6-24,95.7,78.8,65.8,74.0,67.9,61.7,89,71,47,29.67,29.52,0,0,0,0.04
2013-6-25,93.0,75.4,65.3,76.4,68.0,61.9,91,79,56,29.62,29.40,0,0,0,1.06
2013-6-26,97.0,74.7,64.4,75.0,67.6,61.8,92,80,49,29.52,29.33,0,0,0,0.51
2013-6-27,88.9,72.2,65.8,74.2,67.1,61.8,93,85,61,29.37,29.26,0,0,0,0.19
2013-6-28,79.3,70.8,61.0,67.9,62.2,54.9,84,74,63,29.19,29.11,0,0,0,0.71
2013-7-24,87.1,63.6,52.3,60.0,52.0,48.2,86,68,38,29.64,29.49,0,0,0,0.00
2013-7-25,58.1,54.9,52.9,51.1,49.2,48.3,85,81,77,29.65,29.63,0,0,0,0.00
2013-8-1,85.8,74.4,58.8,66.8,59.7,51.3,81,61,43,29.53,29.48,0,0,0,0.00
2013-8-2,78.3,64.3,52.2,66.7,57.6,47.9,88,79,67,29.55,29.44,11,0,11,0.04
2013-8-3,88.2,69.9,57.9,62.9,58.7,53.9,92,71,37,29.64,29.50,12,0,12,0.02
2013-8-4,84.2,65.0,52.7,59.6,53.5,48.5,88,68,41,29.75,29.64,0,0,0,0.00
2013-8-5,78.4,63.3,49.8,61.4,53.9,45.7,89,73,50,29.71,29.56,0,0,0,0.00
2013-8-6,83.1,69.9,62.4,68.4,61.9,56.1,88,76,59,29.56,29.49,0,0,0,0.02
2013-8-7,87.4,72.2,61.5,73.5,65.9,57.6,91,81,62,29.55,29.43,0,0,0,0.00
2013-8-8,80.4,70.6,65.1,67.4,64.0,61.8,91,80,62,29.61,29.50,0,0,0,0.00
2013-8-9,88.2,71.0,59.4,64.7,59.6,55.7,89,69,45,29.61,29.54,0,0,0,0.00
2013-8-10,85.8,69.5,60.1,66.5,60.5,55.6,88,74,50,29.72,29.61,10,0,10,0.61
2013-8-11,87.8,69.3,53.8,65.4,58.7,50.9,92,72,44,29.72,29.62,0,0,0,0.00
2013-8-12,80.6,67.7,63.0,71.0,62.3,56.5,91,83,70,29.66,29.43,0,0,0,0.00
2013-8-13,69.6,62.0,52.2,62.5,53.4,45.2,92,75,51,29.65,29.42,4,0,4,0.00
2013-8-14,75.4,58.2,47.5,55.4,48.3,43.2,87,71,46,29.76,29.65,0,0,0,0.00
2013-8-15,90.9,61.6,45.1,63.0,51.1,41.8,91,72,38,29.77,29.68,0,0,0,0.00
2013-8-16,87.3,66.0,49.5,63.3,54.2,46.0,90,69,44,29.79,29.71,0,0,0,0.00
2013-8-17,82.9,64.7,49.8,62.4,54.7,46.3,90,73,46,29.85,29.77,0,0,0,0.00
2013-8-18,87.1,69.8,55.8,66.4,58.7,52.2,91,71,43,29.81,29.71,12,0,12,0.04
2013-8-19,95.2,69.1,52.7,69.7,59.1,49.6,90,73,43,29.72,29.62,0,0,0,0.00
2013-8-20,92.5,71.8,56.7,70.5,62.1,53.1,90,74,47,29.75,29.66,0,0,0,0.00
2013-8-21,91.2,74.7,59.4,71.3,64.6,55.8,90,73,48,29.75,29.59,3,0,3,0.00
2013-8-22,84.4,71.7,66.6,70.5,65.9,62.5,91,83,62,29.65,29.57,0,0,0,0.00
2013-8-23,88.0,70.4,59.5,64.5,58.6,54.2,92,69,41,29.79,29.64,0,0,0,0.00
2013-8-24,86.7,68.7,52.9,66.0,57.8,49.4,90,71,44,29.90,29.78,0,0,0,0.00
2013-8-25,93.6,70.3,51.8,68.2,59.5,48.9,91,72,43,29.90,29.75,4,0,4,0.00
2013-8-26,94.1,76.6,61.7,73.6,66.0,57.3,87,71,50,29.78,29.58,0,0,0,0.00
2013-8-27,87.4,77.3,70.2,76.6,70.9,66.2,91,81,69,29.61,29.44,0,0,0,0.00
2013-8-28,84.2,76.5,69.1,75.6,71.0,66.3,92,83,70,29.59,29.39,8,0,8,0.00
2013-8-29,91.9,74.6,63.9,75.1,67.3,61.6,93,79,53,29.67,29.59,0,0,0,0.00
2013-8-30,91.9,74.1,58.3,73.0,65.4,55.7,92,76,52,29.60,29.35,0,0,0,0.00
2013-8-31,87.8,75.0,66.9,71.5,67.8,64.2,92,79,56,29.44,29.34,11,0,11,1.45
2013-9-1,88.0,75.6,67.3,73.4,68.0,63.9,90,78,60,29.44,29.32,0,0,0,0.00
2013-9-2,81.0,69.7,60.1,66.6,61.3,50.4,92,76,52,29.52,29.33,0,0,0,0.00
2013-9-3,81.7,64.3,56.1,60.3,53.3,49.6,80,69,48,29.62,29.51,0,0,0,0.00
2013-9-7,79.9,73.6,67.1,67.1,64.3,61.1,83,73,64,29.54,29.49,10,0,10,0.00
2013-9-8,79.5,68.7,55.2,64.8,59.8,49.3,90,74,51,29.67,29.52,10,1,10,0.00
2013-9-9,85.1,64.4,52.0,73.7,59.4,47.9,92,84,67,29.66,29.50,13,1,13,0.00
2013-9-10,98.4,80.9,65.5,74.6,69.7,62.2,91,71,44,29.62,29.50,14,5,14,0.00
2013-9-11,98.8,78.3,68.5,75.6,68.5,63.6,89,74,44,29.65,29.50,24,4,24,0.00
2013-9-12,80.6,69.6,55.2,69.0,61.2,47.9,92,77,47,29.56,29.43,14,3,14,0.00
2013-9-13,63.0,54.2,42.1,48.3,44.3,37.2,83,70,51,29.73,29.55,16,3,16,0.00
2013-9-14,77.9,52.4,35.4,50.3,40.6,32.1,91,68,35,29.79,29.68,7,0,7,0.12
2013-9-15,69.6,54.7,42.1,52.7,47.3,38.2,89,77,53,29.72,29.62,13,2,13,0.00
2013-9-16,66.0,56.3,45.1,53.6,48.9,40.5,92,78,55,29.95,29.70,8,1,8,0.00
2013-9-17,71.2,52.0,37.6,52.6,43.6,34.6,91,75,47,29.98,29.80,6,0,6,0.00
2013-9-18,81.0,59.4,44.8,59.5,51.0,40.9,91,76,46,29.80,29.62,8,1,11,0.00
2013-9-19,84.0,65.9,52.5,68.6,59.7,49.3,91,82,58,29.64,29.51,14,2,14,0.00
2013-9-20,85.1,71.7,66.0,72.3,66.4,63.0,93,84,60,29.53,29.34,20,4,20,0.00
2013-9-21,70.9,62.6,54.7,63.9,54.2,46.5,92,75,50,29.47,29.29,18,3,18,0.00
2013-9-22,62.4,54.0,43.5,46.7,42.5,38.1,82,66,51,29.66,29.46,12,0,12,0.00
2013-9-23,67.6,52.0,41.9,49.1,43.0,37.4,88,73,49,29.77,29.65,5,0,5,0.00
2013-9-24,70.5,53.6,40.8,52.4,45.5,38.0,91,76,48,29.73,29.58,6,0,6,0.00
2013-9-25,75.0,56.5,44.2,57.2,49.0,41.2,92,78,52,29.59,29.52,5,0,5,0.00
2013-9-26,76.5,57.6,44.4,56.3,47.3,41.1,92,72,39,29.72,29.58,7,0,7,0.00
2013-9-27,77.5,58.2,44.2,60.8,50.1,40.8,91,76,50,29.82,29.72,6,0,6,1.77
2013-9-28,83.1,60.2,46.9,63.0,52.0,44.1,92,77,41,29.78,29.60,15,1,15,0.33
2013-9-29,64.2,59.6,56.1,61.0,55.4,50.4,91,86,79,29.62,29.55,8,1,8,0.18
2013-9-30,76.6,61.7,50.7,60.3,54.5,46.0,93,79,53,29.61,29.51,14,1,14,0.00
2013-10-1,71.8,59.4,47.7,63.5,54.5,44.5,92,84,71,29.62,29.54,21,2,21,0.00
2013-10-2,84.0,66.9,56.8,61.8,54.8,48.8,92,69,37,29.67,29.56,8,1,8,0.00
2013-10-3,78.4,61.2,55.0,69.8,56.4,49.9,89,84,75,29.65,29.57,12,1,12,0.04
2013-10-4,84.0,66.8,64.2,69.7,62.7,61.0,90,87,56,29.63,29.57,12,1,12,0.19
2013-10-5,77.0,69.3,63.5,69.0,65.2,60.9,93,87,74,29.63,29.46,12,2,12,0.02
2013-10-6,71.8,64.6,53.8,66.3,61.5,51.5,92,90,80,29.46,29.23,30,5,30,0.20
2013-10-7,62.4,51.1,41.4,51.5,44.4,38.4,92,79,59,29.71,29.30,21,5,21,0.00
2013-10-8,74.1,51.6,37.8,53.3,42.6,34.8,92,74,42,29.87,29.71,11,1,11,0.00
2013-10-9,72.3,52.1,38.3,55.9,43.0,35.5,92,74,40,29.90,29.80,8,0,8,0.00
2013-10-10,76.1,52.5,39.0,56.8,42.7,36.3,93,73,36,29.81,29.70,6,0,6,0.00
2013-10-11,78.1,55.1,39.9,59.0,46.0,36.6,91,74,43,29.74,29.65,5,0,5,0.00
2013-10-12,82.2,60.4,44.4,63.3,50.7,41.7,92,74,39,29.70,29.62,10,1,10,0.00
2013-10-13,70.9,58.1,47.5,56.0,45.8,38.2,91,67,37,29.92,29.67,14,2,14,0.00
2013-10-14,67.1,51.3,38.3,48.4,41.7,34.1,90,72,48,29.98,29.84,7,0,7,0.00
2013-10-15,66.0,52.6,39.4,59.1,47.9,35.8,91,85,70,29.85,29.44,17,3,17,0.02
2013-10-16,64.2,57.2,51.4,59.3,49.7,43.8,92,77,54,29.51,29.41,18,5,18,0.00
2013-10-17,54.5,48.5,41.0,49.5,44.1,37.1,89,85,77,29.51,29.37,16,3,16,0.06
2013-10-18,67.1,49.5,36.0,49.6,41.5,33.3,92,76,46,29.52,29.44,20,3,20,0.00
2013-10-19,52.3,42.8,35.6,45.3,38.2,31.5,89,84,71,29.51,29.36,0,0,0,0.02
2013-10-20,64.2,48.6,36.5,45.6,39.4,32.5,88,72,45,29.51,29.43,9,0,9,0.00
2013-10-21,55.4,49.4,36.9,47.2,42.3,31.9,87,77,68,29.47,29.41,5,0,5,0.02
2013-10-22,54.5,40.5,29.3,37.2,31.2,25.3,87,71,48,29.54,29.45,0,0,0,0.00
2013-10-23,50.7,37.6,29.3,37.1,30.7,25.3,90,77,48,29.54,29.40,0,0,0,0.02
2013-10-24,52.3,36.9,28.4,37.8,29.8,24.6,90,77,49,29.77,29.52,0,0,0,0.00
2013-10-25,50.9,36.8,27.1,38.2,28.8,23.6,91,74,52,29.91,29.71,0,0,0,0.00
2013-10-26,50.7,43.0,33.8,37.5,30.7,26.0,73,62,54,29.72,29.39,11,0,11,0.00
2013-10-27,58.1,41.6,29.1,40.5,30.6,23.4,85,67,43,29.66,29.57,0,0,0,0.00
2013-10-28,58.1,39.6,27.3,42.5,31.6,22.2,84,73,55,29.95,29.63,0,0,0,0.00
2013-10-29,59.5,42.8,32.0,43.6,34.4,27.2,85,73,54,30.00,29.81,0,0,0,23.53
2013-10-30,69.1,49.5,30.7,51.8,41.0,27.4,90,75,46,29.82,29.53,0,0,0,0.26
2013-10-31,61.5,59.1,53.8,59.2,56.6,50.0,93,91,87,29.55,28.79,28,9,28,1.62
2013-11-1,59.2,48.2,44.1,57.2,43.9,40.0,93,85,80,29.27,28.78,20,1,30,0.06
2013-11-2,50.5,45.2,39.4,43.9,40.6,35.4,92,84,65,29.68,29.25,0,0,0,0.08
2013-11-3,52.0,38.0,30.7,40.4,32.1,27.9,90,80,59,30.00,29.68,0,0,0,0.00
2013-11-4,51.6,39.0,28.9,35.4,31.0,25.8,90,74,49,30.03,29.87,0,0,0,0.00
2013-11-5,55.2,47.3,34.7,47.6,42.3,30.3,87,83,74,29.94,29.75,0,0,0,0.00
2013-11-6,55.6,51.2,42.4,51.7,46.3,37.9,89,83,72,29.75,29.41,8,0,8,0.20
2013-11-7,47.3,40.5,33.4,37.9,32.3,27.5,86,73,58,29.74,29.58,0,0,0,0.02
2013-11-8,50.5,37.4,30.9,34.5,29.6,24.5,88,75,51,29.87,29.72,0,0,0,0.00
2013-11-9,60.1,47.1,34.2,44.0,36.7,28.9,82,68,54,29.76,29.41,6,0,6,0.00
2013-11-10,49.6,44.0,41.2,38.1,31.7,28.0,74,62,52,29.79,29.50,14,0,14,4.67
2013-11-11,44.1,36.4,28.6,37.2,30.8,22.5,88,80,71,29.88,29.62,0,0,0,0.15
2013-11-12,34.3,26.9,21.7,23.5,18.6,15.8,84,71,59,30.11,29.90,0,0,0,0.00
2013-11-13,39.6,28.0,17.8,27.0,19.4,13.4,86,71,50,30.12,29.78,0,0,0,0.00
2013-11-14,51.4,36.6,26.4,29.4,23.8,19.0,74,61,42,29.78,29.60,0,0,0,0.00
2013-11-15,50.4,40.4,30.9,32.4,28.6,21.6,72,63,49,29.65,29.60,0,0,0,0.00
2013-11-16,59.2,45.2,29.8,51.0,39.5,25.3,87,80,70,29.67,29.41,0,0,0,0.00
2013-11-17,64.0,60.7,53.8,59.8,56.5,46.0,91,86,75,29.39,28.87,23,0,23,0.79
2013-11-18,36.5,35.1,34.3,27.7,26.5,25.3,73,70,69,29.71,29.59,0,0,0,0.00
2013-11-19,41.5,34.1,26.2,25.6,24.0,21.2,81,67,51,29.96,29.73,0,0,0,0.00
2013-11-20,44.2,33.2,23.5,32.4,26.2,20.2,88,76,56,29.99,29.80,0,0,0,0.00
2013-11-21,46.9,43.2,37.2,42.6,40.3,30.1,90,89,74,29.85,29.75,0,0,0,0.35
2013-11-22,45.7,39.7,25.9,43.5,36.0,22.1,92,87,74,29.94,29.71,0,0,0,0.08
2013-11-23,30.9,23.9,17.1,25.9,16.8,9.2,90,75,54,30.10,29.86,8,0,8,0.00
2013-11-24,29.1,19.0,10.8,14.9,10.7,4.9,81,71,52,30.17,30.01,0,0,0,0.00
2013-11-25,31.8,24.8,16.5,23.4,16.7,10.8,81,72,59,30.01,29.67,0,0,0,0.00
2013-11-26,40.1,32.2,28.9,29.9,25.6,22.8,83,77,65,29.70,29.51,0,0,0,0.00
2013-11-27,29.7,23.9,15.6,22.9,14.6,8.3,79,68,53,29.78,29.49,7,0,7,0.00
2013-11-28,30.7,23.6,13.8,22.3,15.5,7.6,81,71,58,29.98,29.78,0,0,0,0.00
2013-11-29,37.6,25.4,17.2,25.0,18.1,12.2,85,75,53,30.21,29.98,0,0,0,0.00
2013-11-30,47.1,33.5,26.2,31.2,24.3,19.6,79,70,52,30.11,29.68,0,0,0,0.00
2013-12-1,49.6,34.8,25.5,37.1,28.0,20.8,87,77,59,29.69,29.55,0,0,0,0.00
2013-12-2,41.2,31.5,25.7,30.7,25.4,20.9,90,79,59,29.57,29.46,0,0,0,0.00
2013-12-3,41.5,34.8,27.1,36.1,30.5,22.6,89,84,78,29.48,29.40,0,0,0,0.02
2013-12-4,57.4,46.8,35.2,52.6,43.0,32.4,91,87,80,29.47,29.23,0,0,0,0.00
2013-12-5,57.4,42.5,30.4,53.5,35.7,22.4,87,77,66,29.73,29.22,5,0,5,0.00
2013-12-6,30.4,27.4,22.3,22.9,19.1,13.6,76,71,65,29.97,29.70,0,0,0,0.00
2013-12-7,28.4,19.3,11.1,15.5,10.5,4.6,81,69,53,30.18,29.96,0,0,0,0.00
2013-12-8,28.2,20.4,11.7,25.1,15.3,6.3,88,80,72,30.15,29.56,12,0,12,0.00
2013-12-9,31.8,25.4,18.3,25.4,20.1,11.9,89,80,71,29.71,29.48,1,0,1,0.00
2013-12-10,24.6,17.4,7.9,13.1,9.3,2.7,81,71,54,29.78,29.54,8,0,8,0.00
2013-12-11,28.0,17.4,4.5,20.2,10.6,-1.3,80,74,69,30.03,29.77,0,0,0,0.00
2013-12-12,17.6,11.5,1.2,8.9,4.0,-4.2,82,72,58,30.03,29.78,0,0,0,0.00
2013-12-13,32.2,22.8,15.6,21.4,15.3,9.1,80,73,63,29.82,29.73,0,0,0,0.00
2013-12-14,24.4,21.1,19.6,19.9,17.7,16.3,88,87,79,29.81,29.38,20,0,20,1.04
2013-12-15,28.0,20.5,12.0,24.7,16.4,7.9,88,84,79,29.62,29.39,0,0,0,0.00
2013-12-16,28.0,9.7,-5.3,21.4,5.0,-9.7,85,81,74,29.75,29.56,0,0,0,0.00
2013-12-17,31.5,20.8,10.6,26.7,16.7,6.6,87,84,79,29.59,29.49,0,0,0,0.00
2013-12-18,33.1,22.3,14.4,26.3,17.4,10.8,88,82,73,29.72,29.50,0,0,0,0.00
2013-12-19,46.6,33.2,17.8,36.1,27.1,12.3,84,78,65,29.56,29.45,0,0,0,0.02
2013-12-20,41.2,36.7,33.4,38.3,33.8,30.2,92,89,84,29.48,29.31,0,0,0,0.21
2013-12-21,39.2,34.1,32.2,37.0,32.0,30.1,93,92,91,29.44,29.20,0,0,0,0.94
2013-12-22,39.4,34.6,32.2,36.0,31.9,30.1,93,90,84,29.55,29.11,0,0,0,0.32
2013-12-23,32.9,29.0,18.1,30.3,23.9,12.3,90,81,73,29.89,29.55,0,0,0,0.06
2013-12-24,23.7,15.7,10.2,13.8,9.2,5.4,82,76,62,30.10,29.87,0,0,0,0.00
2013-12-25,25.0,20.7,10.6,21.4,16.0,6.1,86,82,76,30.07,29.69,0,0,0,0.00
2013-12-26,29.5,26.3,23.9,23.9,20.9,17.4,88,80,70,29.86,29.62,0,0,0,0.00
2013-12-27,43.0,33.5,26.2,33.8,27.9,21.1,86,80,69,29.89,29.68,0,0,0,0.00
2013-12-28,48.0,37.7,32.2,37.9,31.8,28.2,86,80,67,29.71,29.50,0,0,0,0.00
2013-12-29,45.7,34.3,25.0,35.6,28.6,19.4,87,80,67,29.58,29.28,0,0,0,0.00
2013-12-30,25.0,20.9,16.5,19.4,12.1,7.9,79,69,61,29.83,29.58,0,0,0,0.00
2013-12-31,23.9,18.1,15.1,15.0,11.1,8.4,81,74,65,29.90,29.65,4,0,4,0.00
2014-1-1,16.7,14.8,12.9,12.0,10.5,9.0,85,83,80,29.92,29.74,0,0,0,0.00
2014-1-2,16.9,12.7,2.8,12.9,8.7,-3.9,86,84,73,29.83,29.61,0,0,0,0.00